sat.trackr.live / text

‹ back to catalog

KUIPER-00146

NORAD 65967 · 2025-228W

PAYLOAD ACTIVE UNKNOWN

§ Identity

Operator
Country
US
Launch date
2025-10-14
Launch site
AFETR
Launch vehicle
Mass (kg)
RCS (m²)

External: N2YO · Heavens-Above · Gunter

§ Orbital elements

Epoch: 2026-09-20T06:25:29.597952Z

Period
97.30 min
Inclination
51.9030°
Eccentricity
0.0001092
Mean motion
14.79925132 rev/d
Perigee alt
628.8 km
Apogee alt
630.3 km
Semi-major
7,007.7 km
B*
-5.1124e-5
RAAN
202.8226°
Arg perigee
68.3393°
Mean anomaly
291.7685°
Rev number
5,228

§ Raw data

KUIPER-001461 65967U 25228W   26263.26770368 -.00000611  00000+0 -51124-4 0  99962 65967  51.9030 202.8226 0001092  68.3393 291.7685 14.79925132 52287

JSON: /api/v1/satellites/65967 · /tle

For live sub-satellite position, see the globe view (requires WebGL).

§ Visibility from observer

Set your observer location to see the next 7 days of passes ≥ 10°. The values pass through the URL so the page stays shareable.

No JS? Fill the form by hand. The geolocation button needs JavaScript.